Theta_e
313 314 315 316 316 317 317 316 317 317 318 318 320 321 322 322 321 319 318 318 318 320 323 326 328 328 328 328 327 327 327 329 331 332 331 329 329 331 331 330 327 327 331 333 334 332 329 330 330 328 326 327 327 329 329 327 327 327 331 331 329 332 332 331 331 328 326 324 322 322 323 323 324 323 322 322 322 322 324 323 323 327 327 327 332 332 334 337
312 313 314 315 316 317 317 317 316 317 317 317 318 319 321 322 321 320 318 318 318 319 322 325 328 328 328 328 328 328 328 328 330 331 330 328 328 330 330 328 327 329 330 331 332 331 331 331 330 328 326 327 327 328 330 328 326 329 332 332 331 334 332 329 330 327 326 324 322 322 322 323 323 323 323 323 323 323 324 323 323 325 325 326 331 331 333 336
311 312 312 313 315 316 316 317 317 317 316 317 317 317 319 321 321 321 318 318 319 319 320 324 327 329 329 328 328 328 328 328 330 330 328 327 328 329 330 328 327 330 330 330 331 332 332 332 331 328 326 328 327 327 329 328 327 330 331 333 334 334 331 328 328 326 324 325 323 322 321 322 322 322 323 323 324 324 324 324 324 325 324 325 329 332 333 335
311 312 311 312 313 315 316 317 317 317 317 317 317 316 318 320 321 321 320 318 319 320 320 322 324 327 329 328 328 327 327 329 331 330 328 327 327 328 329 328 328 329 330 330 329 331 332 332 331 328 327 328 327 327 328 329 329 330 330 333 334 332 331 328 327 325 323 325 325 323 322 322 322 322 323 322 323 325 325 324 324 325 324 324 327 332 334 334
311 311 312 312 312 314 315 316 317 317 317 317 316 316 317 319 320 321 321 318 317 320 320 320 322 325 328 328 328 327 328 331 331 328 327 327 327 328 327 327 328 330 332 330 328 329 330 330 330 329 328 327 328 327 328 329 329 330 331 331 330 330 331 328 325 323 322 324 325 324 324 323 322 321 322 322 323 324 324 323 323 324 324 324 327 332 334 334
311 311 312 312 312 313 314 315 316 317 318 317 316 317 317 318 319 321 321 320 318 318 320 320 320 324 327 328 327 327 328 332 330 327 326 325 327 327 327 326 327 331 334 330 328 330 329 330 330 331 329 328 329 327 328 329 327 329 332 330 328 329 330 326 323 322 322 324 325 324 324 322 322 322 322 321 322 323 323 322 321 322 324 327 329 331 332 332
311 311 311 312 312 312 313 314 316 316 317 317 317 317 318 318 319 320 321 321 319 318 320 321 321 323 326 327 327 327 328 329 327 326 326 324 325 325 326 326 325 331 334 330 329 330 329 331 331 331 330 329 330 327 328 328 326 329 332 330 328 328 328 325 322 320 322 324 323 323 323 324 324 323 322 321 322 322 322 322 321 321 323 325 328 330 330 331
310 311 311 311 311 311 312 313 315 316 317 317 317 317 318 318 319 320 321 321 320 318 319 321 322 322 324 326 327 328 329 328 325 324 324 326 326 323 325 327 327 331 334 329 329 329 328 331 331 331 331 331 330 328 328 328 327 328 330 330 327 327 327 325 322 321 322 323 322 322 324 327 325 322 322 322 322 322 322 322 321 322 323 322 324 327 328 329
309 310 310 310 310 311 312 313 314 315 316 317 317 317 317 318 318 319 320 321 320 319 318 320 322 323 325 326 327 329 329 327 326 325 323 325 328 327 328 330 330 331 333 329 329 329 329 330 330 331 332 332 330 329 328 327 328 328 329 330 327 327 327 325 325 324 324 323 323 324 328 329 323 321 325 326 324 324 321 321 321 321 322 322 323 324 327 327
309 309 310 310 310 311 311 312 313 314 316 316 317 317 317 317 318 319 320 321 320 319 318 318 322 325 325 324 327 330 329 326 326 326 325 325 329 331 330 332 331 331 332 330 328 328 328 328 329 330 331 331 330 329 328 328 329 328 328 329 328 327 327 325 326 326 325 325 324 326 329 329 321 321 329 329 325 324 320 320 320 320 321 322 322 323 326 327
309 309 310 310 310 310 311 311 312 313 315 316 316 317 317 317 317 318 319 320 320 320 319 317 320 324 324 323 326 329 327 326 326 327 327 326 329 332 330 331 331 330 331 330 329 328 328 328 329 330 331 331 330 329 329 328 329 328 328 329 328 327 327 325 326 326 325 326 326 326 328 329 323 322 328 329 324 321 320 320 320 320 321 321 321 323 325 327
309 309 309 310 310 310 310 311 312 312 314 315 316 316 317 317 317 317 318 320 320 320 319 318 319 322 323 324 326 326 325 326 327 327 328 327 329 330 330 330 330 329 330 330 330 328 328 328 328 330 330 330 330 330 329 327 328 328 328 329 329 327 327 326 326 326 326 327 326 325 328 330 329 326 327 328 326 324 322 322 322 321 321 321 321 322 325 327
308 308 309 309 310 310 310 310 311 312 313 315 315 315 317 317 317 317 318 319 320 320 320 318 320 322 323 325 326 325 325 325 326 327 328 329 330 329 330 330 328 328 330 330 330 329 329 328 327 329 329 329 330 328 327 326 327 329 327 329 331 330 329 328 328 327 327 327 325 326 329 331 332 331 329 328 328 328 327 326 326 324 323 322 323 323 324 327
308 308 308 308 309 310 310 310 311 311 312 313 314 315 316 317 317 316 317 319 319 320 320 318 320 323 323 325 325 324 325 324 326 328 328 330 330 329 330 329 328 328 329 329 329 329 329 328 329 330 329 328 328 326 326 327 327 329 330 330 331 331 330 330 329 328 328 326 323 327 329 331 332 332 331 329 328 328 328 328 328 328 326 326 325 324 325 326
307 308 308 308 308 309 310 310 310 311 312 312 314 314 315 316 317 315 315 318 319 320 320 319 321 322 322 324 323 323 324 324 326 327 328 330 330 329 329 329 328 327 328 327 327 329 330 329 330 331 329 325 325 327 327 328 328 329 332 331 331 331 331 330 328 327 328 326 323 327 328 330 331 331 330 329 328 327 328 328 328 328 328 328 327 326 325 325
307 308 309 309 308 308 309 309 309 310 311 312 313 313 315 316 315 316 316 317 319 319 320 321 322 321 323 324 322 322 324 325 326 328 329 330 330 329 329 328 328 327 326 325 325 327 329 330 328 329 328 325 325 328 330 330 329 329 332 330 329 330 329 328 326 326 328 326 324 326 328 329 329 329 328 327 327 327 326 327 327 327 328 328 328 327 326 325
308 308 308 309 309 309 309 309 309 310 311 312 313 313 315 316 315 316 317 318 319 320 320 321 321 320 321 321 320 322 324 326 327 330 330 329 330 330 328 328 327 327 326 325 325 326 329 330 328 328 328 325 325 327 333 334 330 328 329 327 327 328 327 326 325 325 325 325 324 325 326 327 327 326 326 325 325 325 325 325 326 326 327 327 327 327 326 324
308 308 308 309 309 309 309 309 309 309 310 311 312 313 314 316 316 317 317 318 319 319 320 320 319 321 321 319 319 322 324 326 328 329 329 329 329 329 327 327 326 326 326 326 326 326 328 328 327 330 330 327 327 327 332 334 329 326 326 326 326 325 325 325 326 325 323 324 324 324 325 325 324 324 324 324 324 325 325 325 325 325 326 326 326 326 325 325
306 307 308 309 309 309 309 310 310 310 310 311 312 312 314 315 316 317 317 318 319 320 321 320 319 323 324 320 319 322 324 326 328 329 330 330 328 328 327 326 325 325 325 325 326 326 327 328 328 331 331 329 329 329 330 331 328 327 326 325 325 323 323 325 325 324 323 324 324 324 324 324 324 324 323 323 323 324 324 324 324 325 325 325 326 326 326 326
305 305 307 309 309 309 310 309 310 310 310 311 313 312 314 315 316 317 317 318 320 320 320 320 319 320 322 320 319 323 325 326 327 328 329 329 328 327 327 327 326 326 326 325 326 325 326 330 330 330 331 329 329 329 328 328 327 327 326 324 324 323 323 325 325 323 323 323 324 324 324 324 324 324 323 323 323 323 323 323 324 324 324 324 325 326 326 326
304 303 306 309 309 309 309 309 309 310 310 312 313 312 313 315 315 317 316 317 318 318 318 318 319 319 320 321 322 323 324 326 326 326 327 328 327 328 328 327 327 329 329 326 326 325 326 331 331 328 329 328 328 329 328 328 328 327 325 324 325 323 323 325 325 324 322 323 323 323 323 323 323 323 323 323 323 323 322 322 323 323 323 323 322 324 325 325
303 303 305 307 309 309 309 309 309 310 311 311 312 312 312 313 314 315 315 316 317 318 317 317 318 319 319 321 323 323 323 325 326 326 327 327 327 328 329 328 329 331 329 327 327 328 329 330 328 327 328 327 328 329 329 328 327 326 325 325 325 325 324 325 325 324 322 322 323 323 322 323 322 322 323 323 322 322 322 320 320 321 323 321 321 322 324 325
304 304 304 307 309 309 310 310 309 310 311 312 312 312 311 312 314 314 314 315 315 317 317 317 318 318 318 321 323 323 322 324 327 327 326 326 327 327 327 328 329 331 330 328 329 330 331 328 326 326 327 327 328 328 328 328 326 326 326 324 324 325 324 324 324 324 322 322 322 322 322 322 322 321 321 322 322 321 321 321 320 321 322 322 321 322 322 323
305 304 304 306 309 309 310 310 309 310 311 311 311 310 310 313 314 314 314 314 314 315 316 317 317 317 318 320 321 322 322 322 326 327 326 326 328 326 326 327 328 331 331 328 328 329 330 327 325 326 326 326 327 327 328 328 327 327 327 325 324 323 324 323 323 324 323 323 322 322 322 321 321 322 321 321 322 321 321 321 321 320 322 323 322 323 323 323
306 305 303 305 308 310 310 310 309 309 310 311 311 310 311 313 314 313 314 314 314 315 316 316 316 317 318 319 321 322 322 321 323 326 325 325 327 327 326 326 328 331 331 329 329 329 328 325 325 327 327 327 328 327 328 328 327 326 327 326 324 323 323 324 324 324 325 324 322 323 325 324 320 320 321 320 321 322 322 322 322 321 321 323 323 323 323 324
306 305 304 304 307 310 310 309 309 309 309 310 310 310 311 313 314 313 313 315 315 315 316 316 316 318 318 319 321 320 321 322 322 324 325 325 326 326 327 327 327 329 330 329 330 329 327 324 325 327 327 328 328 327 326 327 327 326 326 326 325 324 324 324 325 325 326 325 322 323 326 325 321 319 319 319 320 321 322 323 323 323 322 322 323 323 323 324
306 306 304 304 306 309 309 309 310 309 309 309 309 310 311 313 313 312 313 315 316 316 316 315 316 317 317 319 320 319 321 323 323 324 325 325 325 324 326 328 327 327 327 329 331 330 327 325 325 327 328 329 328 326 325 326 326 326 326 325 325 325 325 325 325 325 325 323 322 323 324 326 324 321 319 319 319 320 321 322 322 323 323 322 321 322 322 323
306 306 305 304 306 309 309 309 309 309 309 309 309 311 313 313 312 312 313 316 318 318 317 315 315 316 316 319 319 319 322 323 323 325 324 324 324 323 325 327 326 325 325 328 332 330 327 326 327 327 328 330 328 326 325 325 326 327 326 326 325 325 325 325 325 326 325 324 324 322 323 327 325 320 319 319 318 318 319 319 320 321 323 322 321 321 321 322
306 306 305 304 306 309 309 309 309 309 309 309 310 312 313 313 312 312 314 317 318 316 316 317 316 316 317 319 319 319 321 321 322 325 324 323 323 322 324 325 325 325 325 327 330 330 327 326 326 326 328 329 328 326 326 326 326 325 325 326 325 326 325 325 327 327 326 327 326 323 322 326 325 319 318 319 318 318 318 318 319 320 321 322 322 322 322 321
307 306 305 304 307 309 309 308 308 309 309 309 311 312 313 312 312 314 315 317 317 315 315 317 316 318 319 320 321 320 319 319 320 324 324 323 323 321 323 324 324 325 326 327 328 328 325 323 324 326 327 326 326 326 326 326 326 325 325 326 326 326 326 327 327 326 327 328 327 323 321 324 325 320 316 317 319 319 319 318 319 319 320 321 322 322 322 321
307 307 305 306 308 309 308 309 309 309 309 310 312 311 311 312 312 315 316 316 316 316 317 318 317 319 319 319 320 320 319 319 321 324 324 323 324 323 323 325 325 326 328 328 328 327 325 325 325 325 325 324 325 326 327 327 325 324 326 328 328 328 328 328 327 327 328 328 325 322 320 322 324 320 316 317 319 319 318 317 318 319 319 320 321 321 321 321
307 306 306 307 308 309 309 309 309 308 309 311 312 311 311 313 313 315 315 313 315 317 317 318 319 319 318 318 320 320 320 320 321 324 325 324 325 324 323 324 326 328 329 328 328 327 327 326 325 324 324 324 326 327 328 326 324 325 327 328 329 329 328 329 328 328 328 326 322 320 320 322 322 319 317 318 318 318 318 318 318 319 319 320 321 321 321 322
307 306 307 307 308 309 309 309 309 310 311 310 309 309 311 313 313 314 313 311 314 317 316 317 318 319 318 318 319 320 320 320 320 323 324 324 325 324 323 323 325 327 328 327 327 327 327 327 325 326 326 323 324 326 327 325 324 326 327 327 328 328 329 329 327 327 327 324 322 321 322 324 322 319 319 319 318 319 318 318 319 320 320 320 320 322 322 323
307 306 307 307 308 309 309 309 309 311 311 310 309 310 311 312 313 314 313 311 312 315 316 317 318 318 318 318 318 319 320 320 319 321 324 324 325 325 324 324 324 324 325 325 326 327 327 328 327 327 327 323 322 324 326 325 325 325 325 325 326 326 326 326 324 324 325 323 321 322 324 323 320 320 321 319 319 320 319 319 319 319 320 320 320 321 322 322
306 306 308 308 308 309 309 309 310 309 310 310 310 311 311 312 313 314 314 311 310 314 317 318 318 319 318 318 318 318 319 320 320 321 324 325 325 325 323 323 324 324 324 323 324 325 326 327 328 326 324 323 322 323 322 324 325 325 323 324 325 323 321 321 320 321 322 321 321 323 324 321 317 319 320 319 320 319 319 320 319 319 320 321 321 321 322 322
307 307 308 309 309 309 309 310 310 309 309 309 310 311 311 311 311 312 313 311 311 315 318 319 320 320 319 318 319 319 318 320 321 321 323 324 324 325 323 322 323 323 323 323 324 324 325 326 327 325 324 322 322 323 321 323 325 324 323 325 323 322 321 319 320 321 321 322 322 322 324 322 319 320 319 318 319 318 319 320 319 320 321 321 322 322 323 323
307 307 308 309 308 308 308 309 310 309 309 308 309 310 310 310 311 312 313 312 312 315 318 320 320 319 319 319 319 320 318 319 321 321 322 323 323 323 322 322 322 321 321 323 325 324 325 327 327 325 325 322 321 322 321 322 323 323 323 324 322 322 322 320 321 322 323 323 322 320 322 323 321 321 318 318 319 318 319 319 319 320 320 320 322 322 323 322
307 307 308 308 307 308 309 309 309 309 308 308 308 309 308 310 311 311 313 314 314 315 318 319 319 319 319 319 319 319 318 319 321 321 322 323 322 321 320 320 321 320 321 323 326 325 325 328 328 326 325 324 324 324 326 325 324 325 325 322 323 324 325 323 323 323 324 324 323 320 319 320 320 319 317 318 319 319 319 319 319 319 319 320 320 321 322 322
307 307 308 307 307 308 309 309 308 307 308 308 308 308 308 310 312 312 313 314 315 315 316 317 317 318 319 318 319 319 318 318 321 321 321 321 321 320 319 318 319 320 320 322 325 327 326 326 328 326 325 327 327 327 329 327 324 325 327 325 327 326 324 324 324 322 322 323 323 323 321 319 319 319 319 319 319 319 320 319 319 319 319 319 319 320 322 323
306 307 308 308 308 308 308 309 308 307 308 308 307 308 309 309 310 310 311 314 315 315 315 316 316 317 317 317 318 319 318 318 320 320 320 320 320 321 320 319 319 319 319 320 323 325 324 324 327 326 325 328 329 327 328 327 325 326 329 329 328 326 325 326 325 322 321 323 323 324 324 320 319 319 321 320 319 319 319 320 319 319 318 318 319 320 321 323
306 307 308 307 308 307 307 307 308 307 308 308 308 309 309 308 309 310 311 312 314 313 313 316 317 316 316 317 318 319 318 318 318 318 319 318 320 322 321 320 319 318 318 320 321 322 322 322 324 325 326 329 329 326 325 326 325 325 327 328 327 325 326 328 327 325 324 323 323 324 324 321 318 320 321 320 320 320 319 320 320 319 319 319 319 320 321 322
305 306 307 307 307 307 307 306 306 306 307 307 308 308 309 308 309 310 311 312 313 312 312 315 317 317 317 317 317 318 318 318 318 318 318 317 318 320 320 320 320 318 318 319 320 322 321 321 322 324 325 325 324 321 321 323 325 325 325 326 326 326 326 326 327 326 325 325 324 324 325 323 319 319 320 320 321 320 320 320 320 319 319 319 320 321 321 321
306 305 306 306 306 306 307 308 306 305 306 306 307 308 308 309 309 310 310 311 312 312 313 315 316 316 317 317 317 318 318 318 317 317 317 317 316 317 318 319 319 318 319 319 320 321 321 320 321 322 322 320 319 319 319 321 325 327 326 326 326 327 325 325 325 325 326 326 325 325 326 325 320 319 319 319 319 318 318 319 318 319 319 319 320 321 321 321
306 305 304 305 306 306 306 307 307 307 306 306 307 308 308 308 308 309 310 311 311 312 313 314 314 315 316 316 317 317 317 317 317 317 317 316 316 317 318 318 319 319 319 320 320 320 321 321 322 323 324 322 321 322 321 320 323 326 326 325 326 326 326 327 326 323 325 328 326 326 326 324 320 320 318 317 318 318 317 318 319 320 320 320 321 321 320 321
305 305 303 302 305 307 306 306 307 308 307 306 307 308 307 308 308 308 309 311 311 311 313 314 314 314 315 316 317 317 316 317 318 317 317 316 317 317 318 318 319 319 319 320 319 318 320 322 322 323 326 325 325 325 324 323 323 324 325 325 325 325 326 328 327 325 326 329 327 326 326 323 321 321 320 318 318 319 318 318 318 319 320 320 320 320 321 321
305 305 303 301 302 305 305 305 306 307 307 307 307 308 308 308 308 306 307 310 309 309 311 314 314 314 314 315 316 317 317 317 317 317 317 317 316 316 318 319 318 319 321 322 320 318 319 322 321 322 324 323 325 326 325 325 324 324 325 325 325 325 326 327 327 326 326 328 327 326 326 325 324 322 322 320 318 319 319 318 318 318 319 320 321 321 321 320
305 305 305 303 303 304 305 305 306 307 307 307 307 308 308 309 309 307 307 308 308 307 309 312 313 314 314 315 316 316 316 315 315 316 316 316 316 315 315 317 318 319 321 321 320 318 318 320 321 322 322 321 322 325 323 323 324 323 324 325 325 326 326 327 327 327 327 327 328 327 326 327 325 322 322 321 319 319 319 319 319 319 319 320 320 320 319 318
304 305 305 303 303 305 306 306 306 307 307 307 307 308 308 308 309 309 307 307 307 307 309 311 312 314 314 314 315 316 316 315 314 315 316 316 316 314 314 317 318 319 320 319 319 318 318 319 320 320 320 319 319 321 322 322 323 322 322 323 324 325 325 325 325 325 326 326 326 326 326 326 324 322 322 321 319 319 318 317 317 317 317 317 317 318 317 317
304 305 304 302 303 305 306 306 306 307 307 307 308 308 309 309 309 309 309 308 307 307 309 310 312 313 313 313 314 315 315 315 315 315 316 316 315 315 316 317 317 318 318 317 318 317 316 317 319 319 319 319 318 319 321 322 322 322 322 322 322 323 324 324 324 324 325 325 324 323 323 322 321 320 321 320 319 318 317 317 316 315 315 315 317 317 317 316
303 304 304 303 303 304 306 307 306 306 307 308 308 308 308 309 310 309 309 309 309 309 309 310 311 312 313 314 314 315 314 315 315 315 315 316 315 315 316 317 317 318 318 317 317 317 316 317 318 318 319 319 318 318 319 320 321 322 323 322 322 323 324 324 323 323 324 323 321 319 319 318 317 316 316 317 318 318 318 318 317 316 315 316 317 317 316 317
300 300 301 304 305 304 306 307 306 306 307 307 308 308 308 309 309 309 309 308 310 310 310 310 310 312 313 314 314 314 314 313 314 314 314 315 315 315 316 316 317 318 318 318 318 317 317 317 317 317 318 318 318 318 319 319 318 320 320 321 322 322 323 323 321 320 320 320 319 318 317 316 315 315 316 317 318 318 318 318 317 317 316 316 317 317 317 317
299 300 300 303 306 305 306 307 307 307 307 307 307 308 309 309 309 309 310 309 309 310 310 310 312 312 314 314 314 314 314 313 314 314 314 314 314 315 316 316 316 317 317 318 318 317 316 317 317 317 317 318 317 318 319 319 320 320 318 317 319 320 320 320 319 317 317 317 317 316 316 315 316 317 318 318 318 318 318 318 317 317 318 318 318 318 318 318
Wind_Speed
29 29 28 28 27 26 25 25 24 23 23 22 22 23 26 29 30 29 27 27 26 26 27 27 27 26 25 22 21 20 18 17 17 19 21 22 22 22 17 10 12 15 8 6 7 8 8 10 10 8 7 4 3 2 2 2 2 3 5 6 6 7 6 4 6 4 0 2 6 8 8 8 6 7 4 2 6 5 3 5 5 4 5 3 6 8 8 12
29 29 29 28 27 26 25 25 24 24 24 23 23 23 26 29 30 30 29 28 27 27 27 26 25 25 26 24 22 20 17 19 20 22 27 26 23 24 24 14 10 14 11 9 10 11 10 9 9 9 7 5 3 2 3 3 2 5 5 6 7 6 2 2 3 2 1 1 4 6 7 6 3 5 6 4 7 8 7 7 7 7 8 8 8 8 10 12
29 29 29 29 28 27 26 25 25 24 24 23 23 23 24 27 29 30 30 29 27 27 27 26 25 24 26 25 23 20 16 17 17 22 29 29 27 25 25 21 13 14 14 11 11 12 11 10 9 9 7 6 5 4 5 4 3 6 5 7 7 4 1 2 1 2 3 2 3 4 4 5 2 3 5 5 6 7 8 7 8 9 8 10 10 11 11 13
28 28 29 29 28 28 26 26 25 25 24 23 23 23 23 26 28 29 30 30 27 26 26 26 25 25 26 25 23 19 14 12 12 20 29 29 31 29 27 24 17 15 16 11 10 11 11 11 9 9 8 7 7 6 7 5 4 5 5 8 4 2 2 2 1 2 4 2 1 4 3 5 4 3 4 5 7 6 8 7 7 7 7 9 12 13 13 13
28 27 27 28 29 28 26 26 25 25 25 25 24 23 24 24 27 29 29 30 29 27 26 26 25 25 25 25 24 19 11 6 6 16 30 31 32 32 30 26 20 17 16 11 9 10 10 10 9 9 8 7 8 6 8 9 5 5 8 9 5 3 3 3 3 1 2 0 1 3 3 3 4 4 6 8 8 3 1 1 1 1 1 3 10 12 12 13
26 26 26 27 28 28 27 26 25 25 25 26 25 24 24 24 26 29 29 29 30 29 26 26 25 25 26 25 25 22 13 5 1 8 25 33 34 33 32 28 23 18 14 12 10 11 10 11 10 9 8 8 12 9 10 11 7 7 9 9 6 5 3 3 3 1 1 3 3 3 1 1 3 6 7 9 12 4 6 7 5 5 6 3 7 10 10 11
25 26 27 27 27 27 27 26 25 25 25 26 26 24 25 24 24 27 30 29 29 29 26 26 26 26 26 25 25 21 14 9 1 2 12 29 37 35 33 30 26 20 15 15 13 12 10 12 12 10 9 9 12 12 12 11 8 9 10 8 8 6 3 2 3 1 1 3 0 1 1 3 7 5 3 7 11 9 2 3 4 4 5 3 5 8 9 11
24 25 27 27 27 27 27 26 25 25 25 26 26 25 24 25 24 25 29 29 28 30 27 25 27 26 26 24 19 12 13 16 7 4 1 20 36 37 35 30 27 22 18 19 17 14 12 13 14 11 11 11 11 13 12 10 10 12 11 9 6 6 6 3 3 2 2 2 1 2 4 6 5 2 3 8 9 9 8 4 4 2 3 3 5 7 8 10
24 24 25 26 27 26 26 26 25 26 25 26 26 26 25 24 24 24 28 30 28 29 27 26 26 26 28 23 13 7 15 24 17 6 3 11 29 33 32 28 27 24 19 21 20 17 14 11 14 13 11 12 12 13 12 10 9 10 14 13 7 8 8 5 5 5 3 3 1 4 7 7 2 2 7 11 12 10 6 5 6 6 7 7 7 8 8 9
23 24 24 25 27 26 26 25 25 25 25 26 26 26 26 25 25 23 25 30 29 29 27 26 25 27 28 17 10 8 11 22 24 15 5 7 22 28 28 27 26 26 22 21 22 20 15 12 14 12 11 12 13 13 12 12 8 6 12 14 10 9 8 6 7 7 4 4 4 6 9 6 3 2 8 7 8 7 5 7 8 8 8 9 9 9 9 10
23 24 24 24 25 25 26 25 25 25 26 27 27 27 26 25 25 23 24 28 29 29 26 27 26 27 26 12 11 9 4 17 26 21 12 8 22 28 28 27 25 27 25 22 23 23 19 17 14 10 7 8 11 13 13 12 8 5 6 10 10 9 8 8 9 8 5 5 6 6 10 10 4 6 10 6 4 4 5 8 8 8 8 8 9 9 8 9
21 23 23 23 24 25 26 26 25 26 26 26 28 28 26 26 25 24 24 25 28 29 26 27 25 26 25 11 13 12 4 12 22 22 20 17 22 26 27 28 25 27 25 22 23 25 23 20 16 13 7 5 9 11 10 9 8 6 5 8 11 10 10 11 11 9 8 6 4 3 8 12 11 12 13 10 9 8 8 9 7 8 8 8 9 8 8 9
20 21 23 24 24 25 25 26 26 27 26 26 27 27 26 26 25 24 23 24 27 28 28 26 24 26 22 9 12 18 13 14 16 20 23 21 22 22 25 27 26 26 24 22 23 23 24 21 19 16 8 7 9 4 3 8 9 8 7 8 10 10 11 13 13 11 10 6 5 4 7 10 13 17 15 13 13 13 13 12 10 10 9 9 9 8 8 9
19 20 22 24 25 25 25 27 27 26 27 27 27 27 27 26 25 25 24 24 25 27 27 24 24 24 15 8 12 18 22 20 16 21 23 22 22 21 22 25 25 24 24 21 18 18 22 20 15 10 3 4 5 1 3 7 7 9 10 9 8 10 11 12 13 13 10 6 7 7 8 9 11 12 9 10 13 13 13 12 11 11 10 10 9 9 10 10
20 20 22 23 26 27 26 27 27 26 26 26 27 27 27 26 25 26 25 26 26 26 26 23 25 19 6 10 14 15 21 20 18 23 25 24 23 20 21 24 24 23 22 14 9 11 14 14 10 6 3 3 2 5 8 7 6 9 11 10 9 10 10 7 10 14 12 6 9 10 7 8 12 12 7 6 10 11 12 12 11 11 12 11 10 10 10 9
19 20 22 23 25 27 27 28 28 27 26 26 27 27 27 26 26 26 26 27 26 26 25 21 25 19 5 5 8 11 18 18 18 21 24 27 24 20 21 22 21 20 18 10 6 7 8 10 7 3 5 3 2 8 9 8 9 10 11 12 12 12 11 8 8 13 13 7 11 13 8 7 9 10 5 2 5 9 10 11 12 12 12 12 11 10 9 8
18 19 22 23 25 27 28 28 29 29 27 26 26 27 27 26 26 26 25 27 25 26 24 16 21 21 7 3 5 9 14 15 19 22 23 25 22 22 22 16 14 16 15 9 7 8 6 6 4 2 4 6 6 7 9 12 12 11 12 14 15 16 15 11 8 9 12 9 11 14 12 12 11 8 4 4 6 8 9 10 10 11 11 11 10 10 9 8
19 19 21 24 24 26 28 28 29 29 28 27 26 27 26 25 26 24 24 26 23 21 19 12 14 13 6 9 10 9 15 18 22 26 24 22 21 24 23 14 11 12 10 5 5 8 5 3 5 6 7 9 10 10 12 14 13 13 13 13 15 17 18 16 9 8 14 14 13 14 12 14 16 15 12 9 9 9 10 11 10 10 11 11 10 9 9 9
18 19 21 23 24 26 28 28 29 29 29 27 25 25 24 22 22 21 22 22 16 10 7 8 10 6 3 12 16 10 16 24 22 22 25 24 23 23 20 15 13 13 9 4 5 9 7 4 7 9 10 14 17 17 18 15 15 18 17 14 15 15 14 17 12 8 13 13 12 14 13 13 15 16 17 14 12 11 12 12 11 12 12 12 11 11 11 12
19 19 20 22 24 26 27 30 30 29 28 26 25 22 15 12 11 11 13 11 10 8 3 9 15 12 6 5 13 11 14 26 21 16 24 27 25 21 15 11 10 11 10 8 7 9 10 9 9 12 15 20 21 22 21 17 18 19 17 16 17 16 11 12 11 9 10 10 10 12 14 15 15 16 16 15 14 14 14 13 12 13 13 12 13 13 14 13
21 21 21 22 25 27 28 30 31 29 29 28 26 17 6 9 9 5 9 7 11 13 5 6 16 19 14 4 9 15 9 17 20 17 26 28 22 18 12 11 10 9 10 13 10 7 11 12 14 18 21 22 21 23 22 21 22 18 16 15 15 16 12 11 12 10 8 7 8 11 14 16 15 15 16 15 15 15 16 15 15 16 15 13 14 15 15 13
22 21 22 23 24 27 28 29 31 31 29 27 25 15 7 15 12 4 10 9 13 16 7 6 12 17 17 7 8 19 9 9 15 18 26 27 19 14 10 9 11 9 11 14 9 8 11 13 18 23 22 21 20 22 23 25 24 16 14 14 12 13 12 9 9 8 6 5 7 11 13 14 14 15 16 17 17 15 15 18 17 17 16 14 15 15 15 14
24 23 23 23 24 27 28 29 31 29 28 27 23 18 15 21 19 8 9 6 9 14 9 8 11 13 18 10 8 18 15 12 13 15 25 25 15 12 9 9 12 12 13 15 12 11 11 14 22 23 20 21 21 23 25 24 20 15 14 14 12 12 11 9 7 8 8 6 7 9 10 11 13 14 16 17 19 17 17 20 19 17 17 17 16 14 14 15
25 25 23 24 25 26 27 28 28 29 31 30 25 25 23 22 21 15 9 3 5 10 12 11 9 11 17 11 10 16 15 13 11 13 24 25 14 11 10 11 15 14 13 19 20 17 15 15 19 20 20 23 23 23 24 18 14 15 16 14 14 15 14 11 7 7 7 7 6 6 9 11 12 14 15 15 18 19 18 20 20 18 17 17 17 16 16 16
27 27 25 25 25 26 28 24 26 33 32 27 26 28 25 20 21 20 10 3 5 6 11 11 6 8 11 8 11 11 9 10 10 11 21 26 18 12 9 8 11 14 16 21 22 18 18 15 15 20 23 24 23 21 21 17 13 14 16 16 18 18 16 12 9 6 5 7 7 5 8 9 8 13 14 12 15 18 17 18 20 19 17 16 16 16 16 16
28 28 26 26 26 26 23 15 23 32 23 20 26 26 24 21 21 19 8 3 7 5 10 10 5 9 12 9 10 8 5 10 8 12 21 25 18 9 9 8 5 11 15 15 14 9 13 16 18 22 23 23 22 19 19 19 14 13 13 15 18 20 16 12 12 9 7 8 3 6 7 9 6 11 13 10 12 15 15 16 18 16 15 14 14 14 14 14
30 29 28 28 27 26 19 11 20 26 16 18 26 25 25 25 20 12 4 4 7 5 10 8 5 12 16 12 15 11 6 7 6 11 20 22 14 3 9 13 6 9 9 5 7 3 8 18 20 23 23 20 18 16 19 21 16 11 8 13 17 19 17 13 12 10 7 9 3 6 6 9 10 11 12 13 14 15 15 15 15 14 14 14 14 15 14 13
33 31 29 29 29 32 26 14 18 22 19 19 24 25 24 24 18 8 3 6 4 6 8 7 5 11 13 12 18 11 5 11 8 12 17 17 12 4 10 17 13 15 13 7 7 5 12 21 22 24 23 17 16 15 16 19 16 7 2 9 14 14 15 12 10 8 7 9 9 8 7 7 12 8 8 14 16 17 17 16 16 14 14 15 15 16 15 13
35 32 31 31 29 33 31 21 19 23 23 20 23 27 25 22 15 3 4 6 2 3 4 8 7 9 9 12 18 13 5 5 4 9 14 10 8 3 6 14 15 17 16 12 11 5 6 12 15 20 19 13 14 13 13 17 15 5 6 7 9 10 12 11 8 6 6 8 11 12 10 8 11 7 6 11 13 15 14 13 13 13 14 15 15 15 14 11
36 34 33 31 27 31 31 25 24 24 24 22 24 28 25 18 8 3 7 5 3 2 3 7 9 12 14 12 13 15 12 4 2 10 11 6 8 4 2 3 8 11 12 14 13 6 2 3 3 10 12 11 12 11 13 15 11 10 10 8 7 6 8 8 7 6 7 9 12 16 16 13 11 6 5 6 5 6 7 7 8 11 14 14 13 12 10 9
37 35 33 32 31 32 26 20 25 26 25 27 29 28 19 8 4 7 7 1 2 5 6 8 12 16 21 18 11 14 17 9 7 10 7 5 9 8 4 2 3 7 9 10 11 8 4 1 1 5 9 11 12 10 10 10 10 11 8 7 6 4 4 6 5 5 8 10 13 17 20 18 13 6 2 2 3 3 3 6 8 10 11 10 9 9 8 8
36 34 34 34 32 33 26 21 27 28 27 33 30 18 9 4 6 6 2 1 3 7 8 10 14 15 21 21 14 17 18 11 10 12 10 8 6 9 12 9 7 8 7 8 10 10 7 6 6 7 9 12 10 7 5 6 9 9 7 7 7 5 5 7 7 6 9 9 7 8 12 16 15 12 8 4 2 3 3 6 7 7 6 6 7 7 6 6
36 34 34 35 33 35 33 26 28 28 31 35 22 7 5 6 6 6 4 3 2 4 8 11 15 19 21 19 15 17 17 13 13 13 12 12 7 9 15 15 15 11 5 9 13 11 9 9 10 9 8 10 10 8 6 6 11 13 11 10 10 8 8 10 10 8 8 10 7 4 5 9 11 12 15 17 13 9 8 9 8 7 7 8 8 7 6 5
35 34 33 36 36 36 33 28 31 35 34 28 12 5 9 8 4 10 11 4 2 3 11 14 16 20 21 17 14 16 13 12 15 13 12 13 7 7 11 14 19 12 4 8 10 11 12 10 11 12 9 13 16 13 11 10 13 15 12 10 9 8 9 10 10 10 8 8 10 8 4 5 7 5 5 12 16 16 16 15 14 12 12 12 11 10 9 7
33 34 31 32 34 34 33 31 35 40 31 16 7 7 10 8 4 7 8 5 2 5 12 17 18 17 16 14 14 18 12 9 16 13 10 12 8 9 10 9 15 12 7 8 5 7 10 7 9 11 10 18 20 15 13 11 9 10 9 9 9 8 10 9 5 6 7 7 8 9 5 4 5 3 2 2 4 9 13 14 15 16 15 13 11 9 8 7
31 31 27 28 30 33 36 33 37 41 26 9 6 7 7 7 4 3 5 6 5 8 12 14 14 12 11 10 12 17 10 5 14 13 9 10 10 13 13 9 13 14 9 8 5 5 7 5 10 12 11 20 21 16 16 12 7 8 10 10 5 4 10 11 5 1 5 8 7 7 7 5 6 9 7 7 5 7 10 11 14 14 13 11 8 7 7 7
28 24 19 21 28 32 35 35 38 37 19 7 8 9 7 7 3 3 6 5 6 12 13 10 9 8 9 9 10 14 9 4 11 11 8 9 7 9 11 8 13 17 11 5 2 4 5 5 12 16 15 19 18 17 19 13 6 6 10 10 4 1 4 7 6 5 7 8 7 8 12 10 7 7 7 13 14 12 12 12 13 12 10 9 7 7 7 7
23 18 11 15 27 31 34 39 38 25 10 7 13 13 8 6 4 4 7 8 10 12 9 6 6 7 9 10 9 13 13 8 10 10 7 7 5 8 12 6 6 14 12 4 1 1 2 3 9 14 15 15 13 14 15 10 3 2 4 8 5 2 5 6 6 7 9 8 7 11 14 11 10 7 3 9 15 16 14 13 13 12 11 9 9 8 7 7
15 9 5 15 28 29 33 40 31 14 6 8 12 13 7 3 3 5 7 10 12 11 8 4 4 6 8 9 10 14 17 13 11 11 9 7 7 11 15 8 6 13 12 6 2 2 2 4 5 8 10 10 9 9 11 9 3 2 2 6 2 1 5 6 5 5 8 9 7 10 12 9 9 10 10 9 10 12 14 12 12 12 11 9 7 5 5 4
9 3 3 17 30 30 34 32 17 7 7 8 10 8 4 3 4 6 9 11 9 6 7 8 6 6 8 8 9 12 15 16 15 12 10 10 11 13 16 14 12 16 16 9 4 1 1 3 3 4 5 7 7 8 12 15 10 5 7 8 5 3 3 4 5 5 6 8 8 9 9 7 6 8 12 13 11 11 12 11 11 10 9 8 6 4 3 1
5 3 3 18 31 32 30 17 4 4 6 8 10 5 2 3 4 7 10 11 7 2 4 9 10 9 9 9 10 10 10 14 16 12 9 11 12 10 14 17 17 19 17 11 7 4 2 2 3 4 4 6 8 7 7 11 13 10 9 11 11 9 6 7 9 7 5 7 7 8 9 7 4 3 7 12 13 12 12 11 9 8 7 6 4 3 2 1
6 4 4 19 33 32 21 5 1 5 5 7 9 5 2 3 4 7 9 10 9 4 5 8 9 10 9 8 9 10 9 9 13 12 10 13 14 11 15 20 21 22 18 11 11 9 3 2 3 2 3 3 3 2 2 3 10 11 7 8 10 8 8 9 9 7 7 8 6 7 9 6 1 1 3 6 8 8 8 8 7 5 5 5 4 3 2 1
6 3 3 17 33 28 12 4 4 6 5 3 5 5 4 4 4 6 8 8 8 5 3 6 6 9 9 7 8 10 9 6 9 13 11 14 15 10 15 23 23 22 18 11 12 10 4 2 3 1 1 0 1 1 3 3 4 8 6 6 9 10 11 9 4 3 5 8 8 8 9 6 2 2 1 2 4 4 4 4 5 6 5 4 4 3 2 2
4 4 3 11 30 26 9 5 7 8 6 4 4 6 4 3 4 6 9 9 6 6 6 6 5 6 6 8 9 12 13 6 7 12 10 12 10 1 8 24 23 18 15 11 11 10 5 5 6 4 3 1 1 1 1 1 2 4 6 9 10 12 12 5 2 1 3 7 11 10 8 8 5 4 3 3 5 4 4 5 5 5 4 2 1 2 3 4
4 4 3 3 16 17 6 3 5 8 9 8 7 8 5 3 5 4 6 8 6 6 8 8 9 6 6 9 8 10 14 7 4 8 7 8 6 4 4 22 24 16 13 14 15 11 7 7 7 7 6 6 5 4 3 3 4 3 7 14 15 16 17 10 4 6 6 6 10 10 8 9 7 6 5 5 6 6 5 7 5 2 1 1 2 2 3 3
4 3 2 1 2 6 4 2 3 6 9 9 7 9 10 8 6 3 3 5 4 3 5 6 10 9 7 11 9 8 12 6 2 5 6 6 4 2 3 12 20 18 13 16 18 10 4 5 8 9 8 5 4 3 4 6 6 6 11 16 18 19 19 13 7 8 6 6 9 10 9 11 11 11 10 7 7 9 8 9 7 4 3 2 3 3 3 3
4 3 5 3 1 4 6 5 5 5 7 11 8 8 12 12 8 5 4 3 3 2 4 6 8 12 11 12 10 8 11 8 3 6 10 6 2 2 3 3 13 18 11 11 15 8 3 7 10 11 11 9 3 3 7 9 9 11 12 14 14 15 15 12 9 6 5 5 8 8 8 10 14 16 14 8 7 9 8 7 5 4 4 5 3 3 4 6
3 2 4 2 0 5 8 8 11 9 10 12 8 7 13 15 11 8 6 3 2 2 2 4 8 14 17 16 11 8 11 11 8 8 10 7 3 2 1 3 5 11 11 8 10 6 3 7 11 12 13 13 9 4 7 9 9 11 14 15 15 15 15 14 13 11 9 8 7 4 6 11 16 18 14 8 5 4 4 4 5 6 7 7 6 6 8 8
1 1 3 1 0 4 6 8 12 12 11 12 9 8 12 15 14 10 7 6 3 4 5 5 8 14 19 18 12 10 12 11 10 11 11 10 9 7 5 2 4 7 12 10 9 7 5 5 11 13 13 16 17 12 9 10 10 12 15 17 18 18 18 18 18 17 15 11 7 4 5 12 15 13 8 5 5 6 7 8 9 9 9 9 8 8 8 7
1 1 2 3 1 1 3 6 10 9 9 11 10 9 11 14 16 12 7 8 8 7 7 8 9 13 19 19 15 13 15 16 16 16 15 13 11 8 8 6 5 9 13 11 9 10 8 8 12 13 10 14 18 17 14 13 12 13 16 17 17 17 17 16 14 13 12 10 10 9 9 12 14 14 12 10 8 10 13 13 11 11 11 10 9 8 8 7
2 3 1 3 4 4 3 5 9 10 9 9 10 9 10 14 17 13 8 10 11 10 11 14 14 13 15 18 17 16 19 21 18 14 14 13 11 9 7 5 6 9 11 9 8 8 8 8 11 11 10 11 14 18 18 13 11 13 15 16 16 15 14 13 11 11 12 11 11 11 9 10 13 12 12 13 14 16 16 13 11 11 10 9 9 8 8 9
2 2 2 3 4 5 5 5 7 9 9 9 11 10 11 15 17 15 9 8 9 8 9 15 16 12 12 18 19 16 16 16 10 8 10 7 5 5 5 5 9 11 9 7 5 3 5 7 8 9 9 9 12 16 16 11 9 11 12 14 16 16 15 15 14 15 16 13 11 9 10 13 13 9 9 15 18 17 15 11 10 11 9 8 9 10 9 10
Wind_Direction
235 233 232 230 229 229 229 230 231 233 234 234 234 232 229 230 229 227 227 231 235 236 238 233 227 227 225 226 229 233 231 225 230 226 225 232 227 228 233 233 233 225 229 238 220 228 225 225 225 216 231 223 220 225 179 227 254 239 230 236 237 233 230 208 204 190 231 89 133 156 176 203 170 162 176 149 227 223 194 206 204 193 216 215 113 109 128 143
236 233 231 231 229 226 226 227 229 231 233 233 234 234 231 229 229 228 227 228 231 234 236 233 228 226 224 223 224 227 228 228 234 234 231 232 230 231 234 235 227 214 216 225 221 226 228 224 215 209 226 219 191 186 193 188 215 234 239 238 236 249 245 162 220 163 122 86 128 158 183 216 183 143 164 203 217 199 219 215 204 219 221 202 157 139 143 154
236 234 230 231 231 228 225 225 226 229 231 232 233 235 232 229 227 227 228 228 228 232 236 234 230 225 224 221 220 220 222 232 240 240 235 232 230 229 231 232 223 209 210 223 232 233 237 239 224 213 224 228 207 192 207 177 194 231 243 243 238 267 2 81 259 116 98 78 131 157 172 212 202 123 160 218 236 206 226 222 202 217 217 204 181 163 158 166
234 234 232 231 233 231 226 225 225 226 228 230 232 233 234 229 226 226 228 229 228 230 233 236 233 226 222 218 217 210 210 239 244 236 235 230 227 227 228 228 220 207 208 225 246 240 243 248 236 222 226 232 216 207 221 186 183 226 228 246 269 298 247 78 345 131 105 54 134 139 152 210 194 170 191 224 243 225 229 226 212 218 213 201 184 173 169 175
230 231 233 232 233 233 229 226 224 224 225 227 229 231 233 230 227 225 227 229 228 228 229 234 235 229 220 213 211 198 186 245 234 224 234 229 223 224 225 225 218 207 207 223 240 235 238 242 234 227 228 234 218 210 231 209 194 240 231 245 298 316 251 77 47 78 97 54 203 173 185 191 153 193 218 224 235 232 74 87 217 284 338 173 168 174 178 182
231 229 229 230 230 231 230 227 225 224 224 226 226 228 231 229 228 225 226 228 227 227 228 230 233 228 219 209 206 194 185 232 138 206 232 225 219 219 221 221 215 206 208 219 220 217 223 228 227 223 220 234 226 215 231 214 191 240 235 230 250 275 279 74 82 46 4 232 205 203 217 144 192 226 213 217 236 250 54 58 46 44 45 78 156 173 186 193
231 232 228 228 228 228 230 227 225 225 224 225 223 225 228 228 229 225 224 226 226 226 225 228 228 228 220 205 202 201 202 225 139 85 228 218 215 216 216 216 212 204 206 210 205 206 210 215 220 220 216 229 230 224 230 213 193 233 242 226 220 233 238 105 107 85 278 253 273 340 331 233 232 240 204 217 238 249 256 103 83 72 84 109 171 182 196 205
229 235 232 228 228 228 229 227 225 225 225 224 221 223 226 227 228 226 223 224 225 223 224 225 224 227 221 202 200 211 217 214 203 11 318 207 210 210 208 206 205 202 203 207 200 199 203 211 216 217 221 226 227 225 223 210 209 227 241 239 212 215 216 162 160 190 236 256 345 274 256 247 239 311 277 247 249 251 245 200 162 176 165 183 199 199 208 213
227 233 233 230 228 227 228 227 225 225 226 224 221 221 224 226 227 225 223 223 225 222 223 224 222 223 215 203 204 229 223 208 204 255 342 192 202 201 196 193 194 197 202 207 202 199 200 210 215 218 231 231 229 229 218 212 220 219 231 239 217 216 217 192 207 209 222 234 234 250 254 251 213 344 276 250 251 249 227 210 217 224 221 224 222 217 218 218
228 230 232 232 229 227 227 227 226 225 227 226 221 219 221 225 225 224 222 223 225 223 222 223 222 215 207 201 210 230 220 200 200 218 244 177 187 190 191 189 189 193 199 203 203 203 202 209 214 221 240 240 233 231 221 218 232 229 231 235 226 225 213 197 224 218 219 236 234 255 263 254 157 224 258 234 233 233 210 223 228 228 233 235 230 225 221 223
228 228 229 231 231 228 226 227 228 226 227 227 223 219 219 223 222 221 223 223 224 223 221 222 222 216 210 207 220 226 158 194 208 210 216 191 178 185 195 196 193 195 198 200 202 202 203 210 213 218 232 243 236 231 230 223 233 250 236 232 225 228 217 203 222 219 219 234 226 255 274 263 214 221 246 239 199 187 214 234 225 222 233 237 234 227 218 224
230 229 228 229 230 228 225 225 226 228 228 227 225 221 219 222 220 219 223 224 223 223 221 220 221 217 216 220 228 226 141 198 214 203 206 203 184 187 196 200 200 201 201 201 203 201 202 207 211 213 205 217 227 229 235 218 221 233 219 234 228 224 226 217 218 217 219 220 193 237 275 257 238 237 240 237 231 223 233 243 235 232 235 235 235 228 216 219
230 231 229 228 228 228 227 223 223 226 227 226 226 223 220 220 218 216 220 225 224 221 219 220 219 213 213 227 233 227 219 221 215 198 201 199 189 189 195 202 206 207 209 210 208 200 199 202 209 217 213 222 224 235 255 207 213 224 214 240 240 231 231 220 215 213 213 200 161 199 259 249 238 242 233 220 228 233 236 242 243 241 239 238 237 229 220 213
230 233 232 229 228 227 227 225 223 222 225 226 225 222 220 218 217 216 219 224 223 220 218 218 216 209 207 232 240 233 228 229 218 202 198 191 191 191 194 202 206 210 213 219 222 209 204 199 201 217 230 266 249 308 262 205 201 219 222 234 237 241 240 217 201 194 198 181 161 204 250 254 249 249 225 204 219 231 237 241 243 244 243 243 240 234 230 220
230 232 234 233 229 227 226 226 224 221 222 224 225 224 221 218 217 216 220 224 222 220 216 215 213 208 217 239 243 243 226 223 218 205 197 189 189 190 192 198 202 207 209 214 225 211 199 182 173 195 152 47 326 230 223 210 202 216 225 229 223 235 240 214 188 191 202 187 174 204 243 252 254 259 244 203 210 224 241 247 246 247 248 248 246 241 238 233
234 231 234 235 232 228 226 226 225 222 221 222 224 225 222 220 217 215 220 222 221 217 208 207 208 207 251 241 222 227 213 213 211 196 192 189 186 181 180 188 193 199 202 198 202 196 184 175 172 184 159 131 205 215 218 219 220 217 221 230 226 227 230 212 185 200 212 191 182 208 241 252 248 250 237 162 205 227 245 254 254 251 251 253 253 253 247 241
241 235 231 231 233 230 226 225 225 222 220 219 221 222 221 220 216 215 219 221 220 213 203 199 200 203 239 251 194 204 194 196 190 177 182 187 180 167 163 172 187 193 195 187 190 193 193 192 173 146 185 198 197 201 217 219 218 215 219 232 232 231 233 217 184 192 205 199 198 211 232 248 252 248 210 161 197 229 246 252 255 253 253 253 254 257 251 245
244 239 232 228 230 230 226 224 223 222 220 218 220 221 220 217 214 214 218 217 214 209 205 200 192 195 219 219 217 209 188 180 173 172 178 178 172 165 159 159 166 174 176 167 187 194 200 195 181 189 199 203 198 198 214 216 212 213 216 226 232 232 231 226 210 177 188 202 214 217 226 240 250 257 253 233 210 222 246 251 252 253 254 256 256 257 253 251
245 243 236 230 229 229 226 222 220 221 219 218 219 219 221 219 214 215 215 209 202 201 205 181 183 208 251 212 213 211 186 174 166 172 173 167 170 167 159 152 153 163 159 151 199 194 184 172 191 202 200 201 203 206 215 220 218 220 222 224 230 232 227 230 227 174 182 204 216 224 236 240 243 252 257 255 241 236 247 251 253 256 256 259 260 260 257 256
247 245 239 232 229 227 225 221 219 217 215 214 211 209 215 210 205 213 207 202 205 208 190 162 182 216 266 225 194 182 173 171 167 171 171 168 166 164 161 151 159 181 173 168 182 183 185 189 198 204 205 204 203 209 216 222 227 228 229 224 227 232 224 224 220 172 183 216 219 226 242 245 244 251 254 257 256 253 254 253 252 253 254 256 258 258 257 255
247 247 242 234 229 226 225 222 217 214 213 209 203 203 203 189 190 187 179 202 228 218 230 189 188 208 233 274 167 161 162 174 169 173 179 175 163 162 168 160 172 194 185 178 164 159 193 204 205 204 208 207 202 208 213 218 226 231 232 224 224 233 227 219 212 176 176 222 237 240 249 250 247 251 257 258 256 256 258 258 254 254 257 257 256 255 256 256
246 247 241 234 229 225 223 221 216 213 213 210 206 210 220 204 204 172 168 200 228 212 217 214 201 211 221 248 175 168 179 190 173 175 179 174 169 174 168 161 180 185 182 185 167 166 202 214 210 205 207 208 204 207 212 218 222 225 231 225 220 228 228 225 216 180 169 216 250 255 258 258 255 250 253 256 257 256 256 258 258 256 259 257 255 254 255 256
245 244 240 234 228 224 221 219 216 212 211 211 209 208 215 214 215 215 187 198 223 205 197 198 205 215 210 215 188 180 194 198 183 177 172 170 176 179 166 169 187 186 181 188 185 183 200 213 210 206 202 205 209 207 211 218 221 220 225 225 222 222 223 227 213 191 193 219 257 276 274 264 260 254 249 250 254 255 251 253 254 253 255 255 255 256 257 257
241 241 241 234 227 223 219 217 214 212 210 212 213 211 214 217 213 210 196 202 234 202 195 195 200 222 214 199 183 194 206 203 190 176 171 174 173 161 170 181 188 197 192 189 195 199 206 210 204 205 204 205 210 208 209 215 219 222 223 227 229 223 228 238 228 201 204 225 241 272 283 267 254 251 247 242 244 247 246 246 249 248 247 250 253 254 252 254
236 237 239 232 226 221 216 214 214 213 209 210 216 211 212 218 211 204 196 215 234 190 183 190 200 229 216 183 178 192 214 215 201 176 176 182 174 155 174 185 187 205 199 191 198 207 214 205 188 201 209 207 210 209 206 207 217 224 221 226 233 232 233 236 234 220 228 246 214 204 266 271 250 249 249 237 233 238 238 239 245 247 244 245 250 251 249 249
232 233 235 230 225 217 210 214 215 211 206 212 214 203 204 214 207 204 202 224 226 181 162 174 178 196 194 181 161 150 213 224 193 168 182 189 181 157 174 178 190 211 201 193 199 211 216 203 190 201 208 205 211 215 204 203 219 226 211 213 228 236 232 223 228 228 245 265 184 145 255 281 270 254 253 247 238 238 236 235 239 241 240 242 244 248 248 245
229 230 232 228 222 210 206 210 202 201 204 213 206 194 201 206 198 198 212 234 221 160 149 165 162 177 186 177 150 145 188 178 141 174 187 190 184 167 190 179 178 210 198 188 206 199 200 204 201 202 205 203 208 215 204 202 217 227 210 204 213 228 231 226 233 236 251 268 220 161 239 279 277 257 248 249 249 246 241 237 237 234 236 242 245 248 248 245
226 226 227 226 217 208 208 194 176 193 210 203 191 190 194 189 180 182 226 229 191 125 146 159 153 168 178 170 162 172 164 139 161 192 181 185 182 182 205 186 181 200 195 193 212 183 183 203 204 199 203 205 204 206 196 200 217 226 195 200 200 216 229 232 237 242 256 260 250 226 217 260 271 254 231 236 240 244 243 237 236 234 238 244 246 249 249 248
223 222 223 222 216 211 210 196 184 200 202 185 181 186 179 170 169 164 244 226 142 102 157 153 159 158 157 170 178 194 192 143 194 175 160 186 194 194 222 189 183 195 196 207 218 197 185 211 213 206 207 205 204 203 185 198 214 172 117 178 196 210 223 228 234 239 247 246 247 238 215 237 270 260 220 227 229 235 239 235 234 235 239 242 242 247 253 252
219 219 220 217 214 212 208 205 208 202 187 180 178 172 162 159 170 211 220 212 101 132 170 160 169 148 149 175 187 194 200 187 146 157 157 175 184 197 300 190 184 188 193 210 216 228 308 314 240 220 218 200 195 193 184 195 190 140 139 174 191 208 220 224 226 230 239 237 236 233 219 227 263 266 223 232 228 220 227 227 225 229 235 238 241 246 253 252
215 215 215 210 208 204 199 205 209 196 180 176 166 160 158 154 205 219 214 252 68 168 165 162 163 148 160 179 184 187 195 189 162 169 162 149 173 184 181 175 180 181 192 205 206 215 244 289 149 214 218 200 187 184 186 176 147 142 162 175 169 186 218 223 219 216 229 233 233 233 226 225 244 254 166 99 83 138 221 236 226 228 235 241 247 248 249 249
212 211 209 207 205 199 196 201 199 190 178 167 156 154 167 185 215 216 187 50 202 182 163 156 159 157 167 177 182 184 187 185 175 179 174 169 177 181 186 186 165 176 195 188 189 200 210 205 184 191 207 201 183 164 158 137 147 170 174 168 179 184 193 211 214 206 220 235 239 236 233 230 240 250 241 232 152 152 234 250 236 231 232 240 243 243 241 237
208 207 206 206 203 198 198 193 183 179 170 162 154 148 189 216 214 192 180 189 198 157 153 158 167 169 167 172 187 188 185 186 181 183 186 183 179 185 196 192 178 187 196 173 180 186 203 215 192 182 189 192 181 161 153 153 175 188 177 172 192 197 202 216 220 214 221 237 239 244 273 255 246 254 248 243 237 232 238 236 233 239 249 258 253 246 247 243
204 203 204 205 203 200 197 188 178 172 163 157 156 165 197 225 196 179 194 204 330 165 159 162 169 174 173 174 183 181 185 196 183 179 189 190 189 190 201 197 190 192 155 166 183 179 195 216 192 182 171 176 188 185 174 165 177 190 184 185 201 203 217 226 225 221 220 233 227 218 241 235 225 245 243 238 236 232 233 232 238 253 260 262 261 258 264 264
202 202 203 202 201 197 189 184 179 172 163 158 175 187 201 215 180 184 187 157 212 195 163 164 166 171 182 184 183 179 182 195 181 178 193 195 197 190 189 198 199 195 155 167 189 178 204 224 175 175 171 175 187 190 174 161 176 196 193 205 215 211 225 237 245 228 213 226 220 205 215 223 234 251 128 145 204 210 224 230 234 246 250 251 256 258 263 266
197 200 201 197 197 194 186 180 173 169 165 159 187 201 209 212 198 186 166 146 182 168 154 168 169 167 181 187 190 185 184 196 179 181 199 198 202 196 185 177 191 199 186 172 167 163 205 214 158 162 180 186 189 189 185 175 172 192 198 206 207 209 228 234 250 227 198 229 226 206 231 247 266 268 227 196 176 176 204 216 219 230 237 241 250 249 250 257
192 194 194 193 193 189 185 180 170 166 165 163 195 207 208 214 212 158 164 159 170 164 158 170 172 168 174 178 190 182 174 191 181 184 199 192 199 195 182 172 179 192 196 181 171 170 191 191 166 169 186 192 191 192 198 199 187 192 200 192 157 46 251 235 238 217 200 229 229 213 229 226 225 254 224 204 208 200 196 204 211 218 224 233 239 238 244 250
185 183 184 187 184 181 179 177 170 163 162 177 202 210 201 207 208 189 188 167 162 175 178 173 168 176 179 178 183 175 171 180 180 185 191 187 195 172 167 172 175 183 182 144 84 224 202 190 176 181 188 185 183 192 201 210 224 259 202 181 167 195 203 200 223 221 212 227 234 227 235 231 215 224 203 198 213 213 206 208 217 224 228 234 235 233 238 244
168 166 183 178 179 178 172 170 166 162 170 183 205 208 194 201 211 215 217 185 169 176 190 193 173 181 185 176 171 172 177 182 175 183 191 188 195 171 163 166 173 179 174 139 125 231 211 206 190 187 185 170 170 193 198 196 202 346 194 178 165 211 205 204 209 212 220 227 235 235 236 234 225 231 237 230 216 201 196 202 215 221 224 226 224 223 229 236
147 160 175 169 177 176 165 163 164 170 180 192 207 200 170 195 207 212 227 213 188 171 191 196 171 169 181 176 175 175 184 191 183 187 195 183 186 183 173 170 168 176 178 168 175 188 162 216 202 161 162 166 179 193 194 191 183 173 187 185 181 185 206 228 218 210 226 228 231 238 240 238 231 229 232 230 218 195 188 199 211 211 217 227 230 232 233 242
147 185 159 169 176 167 155 156 175 173 183 207 207 194 145 189 192 200 218 224 219 269 252 207 173 165 175 174 182 180 188 202 197 197 201 186 190 194 178 173 167 169 175 177 190 184 136 202 194 166 174 186 189 191 202 200 184 175 188 189 190 187 176 204 216 205 214 230 231 239 248 248 235 231 230 223 221 217 211 219 226 215 215 221 217 214 200 185
163 176 155 172 172 161 153 162 170 165 197 211 197 185 158 184 193 193 204 224 225 239 274 235 181 165 173 169 175 179 182 202 204 204 207 200 204 201 181 177 169 164 167 179 190 178 137 152 175 184 205 183 170 160 331 232 191 188 200 194 193 191 182 204 216 197 197 218 231 249 256 254 171 126 239 217 213 215 209 214 215 194 189 191 182 171 165 184
171 145 110 167 164 156 160 193 160 175 202 192 188 184 171 181 195 186 188 213 224 203 236 253 200 171 180 167 154 168 178 197 209 208 208 204 208 205 184 180 169 164 168 179 184 169 124 153 173 181 244 47 13 36 30 9 194 195 207 200 195 197 199 209 213 176 195 205 213 235 246 243 189 136 87 107 135 132 133 161 174 165 169 185 182 148 102 25
138 107 54 165 164 160 175 198 175 187 177 141 181 185 168 190 189 186 192 200 214 206 203 227 213 184 180 170 161 170 174 178 211 212 214 207 203 339 191 187 178 172 177 176 171 166 162 171 170 178 189 173 264 219 127 349 217 194 200 204 204 201 203 204 73 113 211 199 209 224 234 237 215 161 135 121 140 147 136 141 155 168 181 198 134 50 20 351
130 123 38 168 170 170 192 222 188 194 174 154 181 182 167 199 194 193 210 206 214 223 218 215 198 173 151 162 168 175 173 164 193 208 223 214 192 17 234 195 184 181 183 173 165 168 181 179 173 185 187 179 191 201 190 186 188 188 192 197 203 204 202 197 182 211 210 187 205 221 233 240 221 183 201 202 193 217 202 169 172 191 206 303 341 335 320 304
163 162 123 63 200 189 218 267 211 206 178 162 184 191 184 197 197 170 203 218 213 219 256 238 187 162 154 165 164 174 180 164 97 179 207 206 170 46 273 203 194 193 181 165 166 166 173 190 197 206 208 204 185 138 104 122 153 189 193 192 199 204 205 205 207 211 199 186 209 217 227 246 244 236 245 229 202 225 221 193 192 195 201 242 243 238 258 276
191 195 161 146 5 198 212 222 207 210 184 174 182 185 188 198 192 158 167 225 230 197 282 275 194 170 166 166 163 174 182 175 142 178 195 194 114 35 344 258 207 195 172 162 176 176 175 200 205 211 225 243 250 119 130 145 168 191 195 193 197 201 204 210 219 211 185 196 222 219 217 244 256 252 250 236 205 213 211 198 202 217 243 267 273 269 286 306
203 176 150 131 70 187 201 203 195 194 186 183 181 174 189 197 189 173 171 196 269 223 220 264 222 189 172 163 164 172 175 182 194 196 191 180 146 121 100 320 238 185 164 172 189 188 198 206 201 202 219 238 247 217 165 170 180 189 192 193 194 195 198 207 219 216 201 211 231 224 209 230 248 253 247 234 227 229 233 256 274 279 281 286 286 285 290 299
217 139 137 112 300 207 206 191 186 189 185 185 187 183 192 196 192 190 176 163 218 231 200 224 229 200 181 169 166 171 173 178 191 201 201 186 172 160 156 212 263 193 179 184 188 191 202 206 204 207 217 225 228 223 193 182 185 190 196 196 194 194 196 203 215 216 211 218 229 235 241 244 253 264 262 258 278 281 271 268 266 263 265 262 255 259 268 271
248 293 140 145 159 224 227 181 178 190 193 193 199 192 191 197 195 194 183 173 189 198 198 221 228 206 192 183 178 179 178 182 190 196 193 183 176 176 177 183 192 190 192 191 182 191 204 203 200 207 222 226 223 218 204 192 188 191 196 196 193 194 199 205 217 217 212 220 229 233 251 262 264 269 270 267 267 263 260 258 257 258 258 250 243 249 255 253
301 321 328 199 188 169 189 184 181 193 198 201 207 193 188 200 195 187 190 197 196 188 190 206 212 205 199 196 195 190 184 190 197 186 171 175 182 183 181 173 161 172 192 198 184 187 203 204 198 203 222 226 219 216 212 201 198 206 202 192 186 187 197 204 208 206 204 214 230 235 241 253 258 257 254 249 243 245 251 256 260 261 254 245 243 247 246 244
309 298 307 248 204 170 177 185 185 198 205 203 203 191 191 201 192 181 187 207 218 222 207 204 205 201 201 202 202 200 192 191 192 161 149 163 179 169 155 151 158 163 176 189 188 191 204 207 203 204 217 222 214 213 211 201 211 219 203 189 190 192 199 207 207 208 207 207 220 227 224 235 243 231 225 237 239 239 244 247 251 252 245 236 239 243 245 248